2023/07/18 00:00:00, 4.0,23.0
2023/07/18 00:10:00, 4.0,22.7
2023/07/18 00:20:00, 3.7,22.6
2023/07/18 00:30:00, 3.7,22.6
2023/07/18 00:40:00, 3.6,22.7
2023/07/18 00:50:00, 3.5,22.5
2023/07/18 01:00:00, 3.3,22.4
2023/07/18 01:10:00, 2.5,22.2
2023/07/18 01:20:00, 2.2,22.4
2023/07/18 01:30:00, 0.8,22.4
2023/07/18 01:40:00, 2.1,22.3
2023/07/18 01:50:00, 3.1,22.3
2023/07/18 02:00:00, 4.0,22.1
2023/07/18 02:10:00, 4.2,22.3
2023/07/18 02:20:00, 3.8,21.9
2023/07/18 02:30:00, 3.4,22.0
2023/07/18 02:40:00, 3.4,22.0
2023/07/18 02:50:00, 3.2,22.0
2023/07/18 03:00:00, 3.5,21.9
2023/07/18 03:10:00, 3.1,22.1
2023/07/18 03:20:00, 3.2,22.1
2023/07/18 03:30:00, 3.2,22.0
2023/07/18 03:40:00, 2.6,22.2
2023/07/18 03:50:00, 2.3,22.1
2023/07/18 04:00:00, 2.9,22.1
2023/07/18 04:10:00, 2.5,22.0
2023/07/18 04:20:00, 2.1,21.9
2023/07/18 04:30:00, 1.9,21.9
2023/07/18 04:40:00, 1.8,21.7
2023/07/18 04:50:00, 1.6,21.9
2023/07/18 05:00:00, 1.4,21.7
2023/07/18 05:10:00, 1.4,21.9
2023/07/18 05:20:00, 0.9,21.9
2023/07/18 05:30:00, 0.9,22.0
2023/07/18 05:40:00, 0.9,22.0
2023/07/18 05:50:00, 0.8,22.6
2023/07/18 06:00:00, 0.4,22.5
2023/07/18 06:10:00, 0.3,22.8
2023/07/18 06:20:00, 0.3,23.0
2023/07/18 06:30:00, 0.3,23.3
2023/07/18 06:40:00, 0.4,23.4
2023/07/18 06:50:00, 0.4,24.0
2023/07/18 07:00:00, 0.5,24.4
2023/07/18 07:10:00, 0.5,24.7
2023/07/18 07:20:00, 1.5,26.1
2023/07/18 07:30:00, 0.9,26.0
2023/07/18 07:40:00, 1.3,27.2
2023/07/18 07:50:00, 1.3,27.8
2023/07/18 08:00:00, 1.2,28.5
2023/07/18 08:10:00, 1.0,29.1
2023/07/18 08:20:00, 0.9,28.7
2023/07/18 08:30:00, 0.7,28.9
2023/07/18 08:40:00, 0.8,29.1
2023/07/18 08:50:00, 0.8,29.2
2023/07/18 09:00:00, 0.6,31.6
2023/07/18 09:10:00, 0.5,32.7
2023/07/18 09:20:00, 0.6,31.5
2023/07/18 09:30:00, 0.7,33.2
2023/07/18 09:40:00, 0.5,32.7
2023/07/18 09:50:00, 0.6,32.3
2023/07/18 10:00:00, 0.6,32.3
2023/07/18 10:10:00, 0.7,32.1
2023/07/18 10:20:00, 0.4,35.1
2023/07/18 10:30:00, 0.5,34.8
2023/07/18 10:40:00, 0.4,33.7
2023/07/18 10:50:00, 0.3,34.0
2023/07/18 11:00:00, 0.3,35.8
2023/07/18 11:10:00, 0.1,34.0
2023/07/18 11:20:00, 0.4,35.5
2023/07/18 11:30:00, 0.5,35.8
2023/07/18 11:40:00, 1.0,33.7
2023/07/18 11:50:00, 0.4,35.3
2023/07/18 12:00:00, 0.2,35.1
2023/07/18 12:10:00, 0.0,35.7
2023/07/18 12:20:00, 0.2,35.4
2023/07/18 12:30:00, 0.3,35.7
2023/07/18 12:40:00, 0.6,35.3
2023/07/18 12:50:00, 0.6,33.9
2023/07/18 13:00:00, 0.6,33.9
2023/07/18 13:10:00, 0.4,34.0
2023/07/18 13:20:00, 0.4,34.8
2023/07/18 13:30:00, 0.2,34.4
2023/07/18 13:40:00, 0.4,34.3
2023/07/18 13:50:00, 0.5,34.4
2023/07/18 14:00:00, 0.3,35.1
2023/07/18 14:10:00, 0.0,35.1
2023/07/18 14:20:00, 0.3,34.8
2023/07/18 14:30:00, 0.1,34.6
2023/07/18 14:40:00, 0.1,33.5
2023/07/18 14:50:00, 0.1,34.4
2023/07/18 15:00:00, 0.4,35.1
2023/07/18 15:10:00, 0.1,35.5
2023/07/18 15:20:00, 0.1,34.6
2023/07/18 15:30:00, 0.3,35.1
2023/07/18 15:40:00, 0.2,35.3
2023/07/18 15:50:00, 0.6,34.3
2023/07/18 16:00:00, 0.4,34.5
2023/07/18 16:10:00, 0.7,34.8
2023/07/18 16:20:00, 0.6,35.8
2023/07/18 16:30:00, 0.7,33.9
2023/07/18 16:40:00, 1.3,33.5
2023/07/18 16:50:00, 1.1,33.5
2023/07/18 17:00:00, 0.7,34.9
2023/07/18 17:10:00, 0.7,31.9
2023/07/18 17:20:00, 0.9,31.2
2023/07/18 17:30:00, 1.2,29.9
2023/07/18 17:40:00, 1.0,29.4
2023/07/18 17:50:00, 0.7,31.9
2023/07/18 18:00:00, 0.9,31.6
2023/07/18 18:10:00, 0.7,30.8
2023/07/18 18:20:00, 0.7,30.4
2023/07/18 18:30:00, 0.6,29.0
2023/07/18 18:40:00, 0.5,27.8
2023/07/18 18:50:00, 0.5,27.1
2023/07/18 19:00:00, 0.7,26.5
2023/07/18 19:10:00, 0.7,25.8
2023/07/18 19:20:00, 0.9,26.1
2023/07/18 19:30:00, 0.8,25.8
2023/07/18 19:40:00, 0.9,26.2
2023/07/18 19:50:00, 1.0,25.8
2023/07/18 20:00:00, 0.9,25.5
2023/07/18 20:10:00, 0.9,25.7
2023/07/18 20:20:00, 0.9,25.8
2023/07/18 20:30:00, 1.0,25.7
2023/07/18 20:40:00, 1.1,25.3
2023/07/18 20:50:00, 1.1,24.9
2023/07/18 21:00:00, 1.2,24.7
2023/07/18 21:10:00, 1.3,24.7
2023/07/18 21:20:00, 1.4,25.3
2023/07/18 21:30:00, 1.3,25.0
2023/07/18 21:40:00, 2.0,24.9
2023/07/18 21:50:00, 2.6,25.1
2023/07/18 22:00:00, 2.8,25.1
2023/07/18 22:10:00, 3.0,24.5
2023/07/18 22:20:00, 2.9,25.2
2023/07/18 22:30:00, 2.6,24.7
2023/07/18 22:40:00, 2.3,24.7
2023/07/18 22:50:00, 2.7,25.2
2023/07/18 23:00:00, 3.0,25.1
2023/07/18 23:10:00, 1.5,24.8
2023/07/18 23:20:00, 1.0,24.7
2023/07/18 23:30:00, 2.3,24.9
2023/07/18 23:40:00, 2.7,24.8
2023/07/18 23:50:00, 1.8,24.8
